Location: Observatorio Las Palmas
(29.0667°N, 110.9333°W)
Time: 12:22:26
(UTC-07:00)

Skynet4D Del rocket - Visible Passes

Search period start: 30 June 2016 00:00
Search period end: 10 July 2016 00:00
Orbit: 763 x 1291 km, 26.9° (Epoch: 30 June)

Date Brightness Start Highest point End Pass type
(mag) Time Alt. Az. Time Alt. Az. Time Alt. Az.
30 Jun 5.0 02:24:31 26° E 02:24:31 26° E 02:26:52 10° E visible
30 Jun 3.7 04:10:11 19° W 04:13:50 53° SSW 04:19:14 10° ESE visible
01 Jul 3.7 03:03:43 55° SE 03:03:43 55° SE 03:08:11 10° ESE visible
01 Jul 4.3 04:50:15 10° W 04:55:03 34° SSW 05:00:04 10° SE visible
02 Jul 3.7 03:43:04 41° SW 03:44:08 46° SSW 03:49:18 10° ESE visible
02 Jul 5.3 20:50:57 10° SSW 20:55:34 20° SSE 20:55:34 20° SSE visible
03 Jul 5.4 02:36:55 19° ESE 02:36:55 19° ESE 02:38:26 10° ESE visible
03 Jul 4.4 04:22:36 19° WSW 04:25:17 28° SSW 04:29:54 10° SE visible
03 Jul 4.9 21:30:56 10° SW 21:35:35 31° S 21:35:35 31° S visible
04 Jul 4.7 03:16:36 27° SSE 03:16:36 27° SSE 03:19:24 10° SE visible
04 Jul 5.2 05:03:28 10° WSW 05:06:22 15° SSW 05:09:19 10° S visible
04 Jul 5.1 20:20:00 10° SSW 20:25:57 26° SSE 20:29:46 16° ESE visible
04 Jul 5.1 22:11:47 10° WSW 22:15:28 31° SW 22:15:28 31° SW visible
05 Jul 4.7 03:56:28 22° S 03:56:28 22° S 03:59:43 10° SSE visible
05 Jul 4.5 21:00:21 10° SW 21:07:15 42° SSE 21:09:29 32° ESE visible
05 Jul 5.8 22:53:06 10° WSW 22:55:09 20° WSW 22:55:09 20° WSW visible
06 Jul 5.3 04:36:27 11° SSW 04:36:32 11° SSW 04:38:10 10° S visible
06 Jul 5.1 19:49:10 10° SW 19:55:53 32° SSE 20:01:55 10° E visible
06 Jul 4.0 21:41:24 10° WSW 21:48:35 60° SSE 21:48:59 59° SSE visible
06 Jul 6.4 23:34:37 10° W 23:34:39 10° W 23:34:39 10° W visible
07 Jul 4.5 20:29:48 10° SW 20:37:12 49° SSE 20:42:37 15° E visible
07 Jul 4.5 22:22:49 10° WSW 22:28:17 51° WSW 22:28:17 51° WSW visible
08 Jul 4.1 21:11:01 10° WSW 21:18:36 66° S 21:21:46 33° E visible
08 Jul 5.5 23:04:24 10° W 23:07:25 26° W 23:07:25 26° W visible
09 Jul 4.5 19:59:18 10° WSW 20:07:07 55° SSE 20:14:04 10° E visible
09 Jul 3.9 21:52:31 10° W 22:00:03 75° S 22:00:45 69° SE visible
09 Jul 6.4 23:46:02 10° W 23:46:23 11° W 23:46:23 11° W visible
